sat.trackr.live / text

‹ back to catalog

STARLINK-35727

NORAD 66281 · 2025-247S

PAYLOAD ACTIVE UNKNOWN

§ Identity

Operator
Country
US
Launch date
2025-10-31
Launch site
AFWTR
Launch vehicle
Mass (kg)
RCS (m²)

Purposes: comms

External: N2YO · Heavens-Above · Gunter

§ Orbital elements

Epoch: 2026-05-25T03:04:04.157760Z

Period
94.10 min
Inclination
53.1592°
Eccentricity
0.0001339
Mean motion
15.30205667 rev/d
Perigee alt
474.3 km
Apogee alt
476.1 km
Semi-major
6,853.3 km
B*
3.7886e-4
RAAN
196.6099°
Arg perigee
85.8408°
Mean anomaly
274.2746°
Rev number
3,273

§ Raw data

STARLINK-357271 66281U 25247S   26145.12782590  .00010880  00000+0  37886-3 0  99962 66281  53.1592 196.6099 0001339  85.8408 274.2746 15.30205667 32731

JSON: /api/v1/satellites/66281 · /tle

For live sub-satellite position, see the globe view (requires WebGL).

§ Visibility from observer

Set your observer location to see the next 7 days of passes ≥ 10°. The values pass through the URL so the page stays shareable.

No JS? Fill the form by hand. The geolocation button needs JavaScript.